Estación de Contra Coronel
Ultimos registro cada 15 minutos 44
| N° | Estación | Fecha / Hora | Temperatura | Humedad | Lluvia | Velocidad | Dirección | Radiación | Presion |
| 44 | Contra Coronel | 10-05-2026 10:45 | 9 | 88,4 | 0 | 1,7 | 173 | 368,1 | 1019,5 |
| 43 | Contra Coronel | 10-05-2026 10:30 | 8,3 | 90,7 | 0 | 2 | 170 | 138,1 | 1019,6 |
| 42 | Contra Coronel | 10-05-2026 10:15 | 8,3 | 92,5 | 0 | 1,3 | 183 | 334,4 | 1019,7 |
| 41 | Contra Coronel | 10-05-2026 10:00 | 8,5 | 92,5 | 0 | 1 | 194 | 353,1 | 1019,8 |
| 40 | Contra Coronel | 10-05-2026 09:45 | 7,2 | 98,8 | 0 | 0 | 4 | 254,4 | 1019,7 |
| 39 | Contra Coronel | 10-05-2026 09:30 | 5,5 | 100 | 0 | 0 | 170 | 211,9 | 1019,6 |
| 38 | Contra Coronel | 10-05-2026 09:15 | 3,1 | 100 | 0 | 0 | 170 | 184,4 | 1019,5 |
| 37 | Contra Coronel | 10-05-2026 09:00 | 1,4 | 100 | 0 | 0 | 170 | 85,6 | 1019,2 |
| 36 | Contra Coronel | 10-05-2026 08:45 | 0,5 | 100 | 0 | 0 | 170 | 24,4 | 1019,2 |
| 35 | Contra Coronel | 10-05-2026 08:30 | 0,2 | 100 | 0 | 0 | 187 | 24,4 | 1019,2 |
| 34 | Contra Coronel | 10-05-2026 08:15 | 0,3 | 99,9 | 0 | 0 | 187 | 15,6 | 1019,1 |
| 33 | Contra Coronel | 10-05-2026 08:00 | 0 | 100 | 0 | 0 | 185 | 6,9 | 1019,2 |
| 32 | Contra Coronel | 10-05-2026 07:45 | -0,1 | 99,7 | 0 | 0 | 185 | 1,9 | 1019,3 |
| 31 | Contra Coronel | 10-05-2026 07:30 | 0,2 | 99,9 | 0 | 0 | 185 | 0,6 | 1019,2 |
| 30 | Contra Coronel | 10-05-2026 07:15 | 0 | 99,7 | 0 | 0 | 185 | 0,6 | 1019,3 |
| 29 | Contra Coronel | 10-05-2026 07:00 | 1 | 99,6 | 0 | 0 | 185 | 0,6 | 1019,4 |
| 28 | Contra Coronel | 10-05-2026 06:45 | 0,7 | 99,8 | 0 | 0 | 185 | 0,6 | 1019,5 |
| 27 | Contra Coronel | 10-05-2026 06:30 | 0,8 | 99,7 | 0 | 0 | 185 | 0,6 | 1019,5 |
| 26 | Contra Coronel | 10-05-2026 06:15 | 0,7 | 99,5 | 0 | 0 | 185 | 0,6 | 1019,4 |
| 25 | Contra Coronel | 10-05-2026 06:00 | 1,1 | 99,6 | 0 | 0 | 185 | 0,6 | 1019,3 |
| 24 | Contra Coronel | 10-05-2026 05:45 | 1,2 | 99,6 | 0 | 0 | 185 | 0,6 | 1019,2 |
| 23 | Contra Coronel | 10-05-2026 05:30 | 1 | 99,5 | 0 | 0 | 185 | 0,6 | 1019,2 |
| 22 | Contra Coronel | 10-05-2026 05:15 | 0,9 | 99,4 | 0 | 0 | 185 | 0,6 | 1019,2 |
| 21 | Contra Coronel | 10-05-2026 05:00 | 0,8 | 99,3 | 0 | 0 | 185 | 0,6 | 1019,2 |
| 20 | Contra Coronel | 10-05-2026 04:45 | 0,2 | 98,9 | 0 | 0 | 185 | 0,6 | 1019,1 |
| 19 | Contra Coronel | 10-05-2026 04:30 | 1,1 | 99,1 | 0 | 0 | 185 | 0,6 | 1019,3 |
| 18 | Contra Coronel | 10-05-2026 04:15 | 1,6 | 99,1 | 0 | 0 | 185 | 0,6 | 1019,3 |
| 17 | Contra Coronel | 10-05-2026 04:00 | 1,1 | 99,3 | 0 | 0 | 185 | 0,6 | 1019,2 |
| 16 | Contra Coronel | 10-05-2026 03:45 | 1,7 | 98,6 | 0 | 0 | 185 | 0,6 | 1019,4 |
| 15 | Contra Coronel | 10-05-2026 03:30 | 2,5 | 98,6 | 0 | 0 | 185 | 0,6 | 1019,3 |
| 14 | Contra Coronel | 10-05-2026 03:15 | 2,7 | 98,7 | 0 | 0 | 185 | 0,6 | 1019,3 |
| 13 | Contra Coronel | 10-05-2026 03:00 | 3 | 98,9 | 0 | 0 | 208 | 0,6 | 1019,5 |
| 12 | Contra Coronel | 10-05-2026 02:45 | 2,1 | 98,7 | 0 | 0 | 225 | 0,6 | 1019,6 |
| 11 | Contra Coronel | 10-05-2026 02:30 | 2,8 | 98,6 | 0 | 0 | 239 | 0,6 | 1019,7 |
| 10 | Contra Coronel | 10-05-2026 02:15 | 1,9 | 98,4 | 0 | 0 | 239 | 0,6 | 1019,8 |
| 9 | Contra Coronel | 10-05-2026 02:00 | 2,5 | 98,5 | 0 | 0 | 239 | 0,6 | 1019,9 |
| 8 | Contra Coronel | 10-05-2026 01:45 | 2,1 | 98,4 | 0 | 0 | 239 | 0,6 | 1019,8 |
| 7 | Contra Coronel | 10-05-2026 01:30 | 2,3 | 98,3 | 0 | 0 | 239 | 0,6 | 1019,9 |
| 6 | Contra Coronel | 10-05-2026 01:15 | 2,5 | 98,3 | 0 | 0 | 253 | 0,6 | 1019,8 |
| 5 | Contra Coronel | 10-05-2026 01:00 | 2,4 | 98 | 0 | 0 | 253 | 0,6 | 1019,8 |
| 4 | Contra Coronel | 10-05-2026 00:45 | 3,2 | 98 | 0 | 0 | 253 | 0,6 | 1020,1 |
| 3 | Contra Coronel | 10-05-2026 00:30 | 2,8 | 97,8 | 0 | 0 | 234 | 0,6 | 1020,2 |
| 2 | Contra Coronel | 10-05-2026 00:15 | 3,1 | 97,7 | 0 | 0 | 234 | 0,6 | 1020,3 |
| 1 | Contra Coronel | 10-05-2026 00:00 | 3,1 | 97,4 | 0 | 0 | 234 | 0,6 | 1020,5 |